Wind_Speed
59 62 63 63 63 62 63 64 64 62 61 61 62 61 57 56 56 55 53 51 48 45 44 44 43 42 41 40 39 38 37 36 35 33 32 31 30 30 29 28 27 27 27 27
58 62 59 58 60 62 64 65 64 63 62 63 63 63 61 59 58 56 55 53 51 48 47 46 45 45 44 42 41 40 39 38 36 35 34 34 33 32 31 29 29 29 29 29
56 56 56 60 61 62 64 63 63 62 61 62 64 65 64 61 60 59 57 55 53 51 50 49 47 46 46 44 43 41 40 39 38 37 37 36 34 33 31 31 31 31 31 30
52 52 55 59 62 61 62 60 60 61 61 62 64 66 65 63 62 60 59 57 55 53 52 51 50 48 47 45 44 43 42 41 40 39 38 37 35 33 33 34 34 33 33 33
47 50 53 57 59 59 59 58 58 59 61 63 64 66 66 64 64 61 59 58 56 54 53 52 51 49 48 47 46 45 44 43 42 41 39 38 37 36 36 36 35 35 35 36
42 47 51 53 54 56 56 57 58 58 59 64 65 65 67 65 62 60 59 57 56 55 54 53 52 51 49 49 48 47 45 44 43 42 41 40 38 38 38 38 38 38 38 37
39 44 49 52 53 56 57 55 56 57 59 63 63 65 68 63 60 59 58 57 56 55 55 54 52 52 51 50 49 48 47 46 45 44 42 41 40 40 40 40 39 39 39 38
39 42 47 51 52 53 57 58 57 56 57 58 61 65 66 62 58 57 57 57 56 56 56 55 53 52 51 51 50 49 48 47 46 45 43 42 41 41 41 40 40 40 40 40
36 40 44 48 50 50 53 58 56 54 54 54 58 62 63 62 58 56 56 56 56 56 56 55 55 54 52 51 51 50 49 48 47 46 45 44 43 42 41 41 41 41 40 40
34 38 42 45 48 50 50 53 57 57 55 53 53 58 62 60 57 56 55 55 55 55 55 55 55 55 54 53 52 51 50 49 48 47 46 45 44 43 43 43 42 41 41 42
33 36 40 44 48 49 49 52 56 57 59 56 53 54 56 55 55 54 52 53 53 54 55 55 55 54 54 53 52 51 50 49 49 48 48 46 45 44 43 43 42 42 42 43
31 34 35 40 44 47 49 49 53 56 58 58 55 52 52 50 50 51 51 50 51 52 53 54 54 54 53 52 51 50 49 49 48 48 47 46 45 45 44 44 43 43 43 43
30 33 34 35 40 46 48 49 50 52 54 56 57 55 51 49 47 47 49 49 48 49 50 51 52 52 52 51 50 49 49 49 48 48 47 47 46 45 45 44 44 44 44 44
31 33 34 35 37 43 46 48 48 50 52 54 54 52 52 47 46 45 45 46 47 47 47 48 49 49 50 49 49 49 48 48 48 47 47 46 45 45 45 45 45 45 44 44
31 33 35 36 36 39 42 47 48 49 50 51 49 50 51 50 45 43 43 43 44 44 45 46 46 47 47 47 47 48 48 48 47 46 45 45 44 44 45 45 44 44 43 43
29 32 35 35 37 38 39 43 48 48 48 50 50 50 50 51 48 44 42 43 43 44 44 45 45 45 45 46 46 46 46 46 46 45 45 45 44 43 43 42 42 42 42 42
27 31 34 35 36 37 38 40 43 45 43 47 50 50 50 49 48 46 44 43 45 45 45 44 45 45 45 45 45 45 45 44 44 45 44 43 43 42 41 41 41 40 40 40
24 27 31 33 35 36 34 35 38 41 44 46 50 51 52 49 48 47 46 45 45 45 46 45 45 45 45 45 45 45 44 44 43 43 43 42 42 41 41 40 40 40 40 40
23 25 28 32 34 34 33 33 35 39 42 44 49 51 51 51 50 49 48 47 47 46 46 46 46 46 46 45 45 44 44 43 42 42 41 40 40 40 40 39 39 39 39 39
23 24 26 29 32 33 34 34 33 36 39 42 46 50 51 51 52 51 50 50 49 49 48 47 47 47 46 46 45 44 43 42 41 41 40 39 39 39 38 38 38 38 38 38
22 24 25 27 29 31 32 34 34 36 38 40 43 48 50 52 51 50 51 51 51 50 49 48 48 47 47 46 45 44 42 41 40 40 39 39 39 38 38 37 37 37 37 37
22 23 25 27 29 29 31 33 35 36 38 40 42 45 49 50 51 51 51 52 51 50 49 49 48 47 47 45 44 44 43 42 40 39 39 39 39 38 38 37 37 36 36 36
22 23 25 27 28 28 30 32 34 36 38 40 42 43 47 48 50 51 51 52 52 51 50 50 49 48 47 47 45 44 43 42 41 40 39 38 38 38 37 36 36 35 35 35
23 24 26 27 28 29 30 31 34 36 38 39 41 42 44 46 48 49 50 50 52 52 51 51 50 49 47 46 46 45 44 42 41 40 40 39 38 37 37 36 36 35 35 35
24 25 26 28 27 29 31 33 34 36 37 39 40 42 43 44 46 47 48 48 49 50 50 50 50 49 47 46 46 45 44 43 42 41 40 39 38 37 37 36 35 35 35 35
24 25 26 27 26 29 30 32 34 36 37 39 40 41 42 43 44 46 47 46 46 47 48 48 49 48 47 46 46 45 44 43 42 41 40 39 38 38 37 36 36 36 35 35
Wind_Direction
230 229 229 228 230 232 233 233 232 230 229 229 229 228 225 224 224 223 223 223 222 221 220 220 220 219 219 220 220 221 221 223 224 226 228 230 232 234 237 241 245 250 255 260
230 229 228 229 229 229 230 231 230 230 229 230 229 228 226 224 224 223 223 223 222 221 220 221 220 220 220 221 222 222 223 225 226 228 229 231 233 236 240 244 248 253 257 261
231 229 227 227 226 227 228 229 230 230 230 231 230 229 226 224 224 223 222 222 222 221 221 221 221 222 221 221 222 224 225 226 228 229 231 233 236 239 242 246 250 253 257 262
230 226 227 226 225 225 226 227 229 231 230 231 231 231 226 225 224 224 223 222 222 222 222 222 222 223 223 223 224 224 225 227 228 230 232 235 238 240 243 247 250 255 259 263
228 225 225 225 224 224 227 226 228 230 231 232 231 232 227 226 224 223 224 224 223 223 224 224 224 224 224 224 225 225 226 228 230 232 234 236 239 242 245 249 253 257 260 264
227 224 223 222 222 223 224 226 227 229 231 233 229 232 229 225 224 224 224 225 225 224 224 225 225 225 225 225 226 227 228 229 231 233 236 238 241 244 248 251 254 258 261 264
225 224 221 219 220 219 220 222 224 227 229 232 229 232 229 224 224 224 225 226 226 226 226 226 226 226 227 228 228 229 230 232 233 235 237 240 243 246 249 252 255 258 261 264
226 222 219 217 218 219 221 221 222 225 228 231 230 232 229 226 223 224 225 226 226 227 227 227 227 227 228 229 230 231 232 233 235 237 239 241 244 247 249 252 255 258 261 264
226 223 219 217 216 218 220 223 223 227 228 230 232 232 230 227 224 223 223 225 226 227 227 228 228 229 229 230 230 231 233 235 236 238 240 243 245 247 250 253 255 258 261 264
224 223 218 217 217 217 220 222 223 224 225 227 230 231 231 228 225 224 223 225 226 227 228 228 229 230 230 231 231 232 234 235 238 240 242 243 245 247 249 252 255 257 260 263
223 223 219 218 218 217 217 219 223 226 227 226 230 231 228 229 227 226 224 225 226 227 228 229 230 230 231 232 233 234 234 236 238 240 242 243 245 247 249 252 255 257 260 263
224 223 221 221 221 220 220 221 222 224 226 225 227 229 227 227 226 226 225 224 225 226 227 229 230 231 232 233 234 235 236 237 238 240 241 243 245 247 249 252 255 258 260 262
226 225 222 219 220 220 220 221 222 224 227 228 228 227 226 226 225 224 224 224 224 225 227 228 229 231 232 233 234 235 236 238 239 240 242 244 246 248 251 253 255 257 259 262
228 226 223 220 219 219 220 219 220 222 223 224 225 225 225 224 224 224 224 224 224 224 225 226 227 229 230 232 234 235 236 237 239 241 243 245 248 250 251 253 255 257 259 262
233 230 226 223 222 222 222 221 220 221 222 221 221 221 223 224 223 222 222 222 223 223 223 224 225 227 229 231 233 234 236 237 239 241 243 245 247 249 251 253 254 256 259 261
236 233 229 227 226 225 223 222 221 222 222 221 220 220 219 222 221 220 219 219 219 220 221 221 222 224 226 228 230 233 235 237 239 241 243 245 247 249 251 253 254 256 258 260
237 234 232 230 228 229 227 223 221 221 221 220 220 219 220 222 223 222 220 219 219 219 220 221 221 222 224 226 228 231 234 237 239 241 243 245 247 249 251 252 254 256 259 261
237 235 232 232 229 230 226 224 223 221 220 220 218 216 217 219 221 220 220 219 217 217 219 220 221 222 224 226 228 230 233 236 238 241 243 245 247 249 251 252 254 256 258 260
237 234 232 231 231 228 224 220 218 219 219 219 218 218 217 218 218 218 217 218 217 216 217 219 221 222 223 225 228 231 233 236 238 240 243 245 247 249 251 252 255 257 259 261
237 235 234 231 230 229 225 221 219 218 218 218 218 219 218 218 219 217 218 219 219 219 219 219 220 222 224 226 229 231 234 236 238 240 242 244 246 249 251 253 255 258 259 261
235 235 234 232 231 229 224 223 222 221 218 217 217 218 219 219 220 218 218 218 219 219 221 221 221 222 224 226 228 231 233 235 238 240 242 244 247 249 251 253 255 257 260 262
235 235 234 231 229 227 223 224 225 225 220 220 220 220 220 220 219 219 219 219 219 219 220 221 221 223 225 226 228 230 232 234 237 240 242 244 247 249 251 254 256 258 260 262
233 232 233 231 227 225 225 226 226 226 224 223 222 221 220 220 220 220 220 220 221 220 221 221 222 224 226 227 229 230 232 235 237 240 242 244 247 250 252 255 257 259 261 262
235 233 233 230 224 224 225 225 225 225 224 223 222 222 221 221 221 222 222 222 223 223 223 223 224 225 226 227 229 231 233 235 237 240 243 245 247 250 253 255 257 259 261 263
237 236 234 231 227 227 228 228 227 226 225 223 221 221 222 221 221 222 222 223 223 222 223 224 225 226 226 227 229 231 233 235 238 240 243 245 247 250 253 255 257 259 261 263
236 238 236 231 228 229 227 228 229 228 225 223 221 220 221 222 222 223 222 222 222 221 222 223 224 225 226 227 229 231 233 235 237 239 242 245 247 249 252 254 257 259 261 264
Height
5579 5586 5594 5608 5618 5629 5636 5643 5651 5662 5669 5673 5679 5687 5698 5704 5710 5717 5724 5731 5738 5745 5750 5754 5758 5763 5768 5772 5777 5782 5786 5790 5794 5798 5802 5805 5807 5809 5812 5814 5815 5817 5818 5819
5563 5571 5588 5598 5604 5612 5620 5627 5637 5647 5654 5660 5667 5673 5683 5691 5698 5706 5714 5721 5729 5735 5740 5745 5750 5755 5760 5765 5770 5775 5779 5784 5788 5792 5795 5798 5800 5803 5806 5808 5809 5811 5812 5812
5549 5565 5576 5581 5588 5597 5605 5615 5627 5635 5642 5647 5653 5659 5669 5679 5686 5694 5702 5710 5718 5725 5731 5737 5742 5747 5752 5757 5763 5768 5772 5777 5781 5784 5787 5791 5794 5797 5800 5801 5802 5803 5804 5806
5538 5552 5558 5565 5574 5584 5593 5607 5615 5622 5628 5633 5640 5645 5657 5667 5674 5683 5693 5701 5709 5716 5722 5728 5733 5739 5744 5750 5755 5759 5764 5768 5773 5776 5780 5784 5787 5790 5792 5793 5795 5796 5797 5798
5529 5539 5544 5552 5565 5575 5585 5596 5603 5609 5615 5620 5626 5631 5644 5653 5662 5674 5684 5692 5700 5707 5713 5719 5725 5731 5736 5741 5746 5751 5755 5760 5764 5768 5772 5776 5780 5782 5784 5786 5788 5789 5790 5791
5520 5527 5533 5544 5555 5564 5574 5582 5589 5595 5599 5602 5613 5619 5628 5642 5655 5666 5675 5682 5690 5697 5703 5709 5715 5721 5726 5731 5737 5742 5747 5752 5756 5760 5764 5768 5772 5774 5776 5778 5780 5781 5782 5783
5509 5515 5523 5532 5541 5550 5559 5568 5575 5579 5582 5589 5604 5606 5616 5635 5647 5656 5665 5672 5679 5685 5692 5698 5705 5711 5717 5722 5728 5733 5738 5743 5747 5751 5756 5760 5763 5765 5768 5770 5771 5773 5774 5775
5500 5506 5513 5521 5529 5538 5547 5555 5563 5570 5576 5585 5591 5594 5611 5625 5636 5645 5653 5660 5666 5673 5680 5687 5694 5700 5707 5713 5718 5724 5729 5734 5738 5742 5747 5750 5753 5756 5759 5761 5763 5764 5765 5766
5492 5499 5506 5514 5522 5530 5537 5543 5555 5563 5569 5575 5578 5588 5600 5612 5623 5633 5641 5648 5655 5662 5669 5676 5683 5689 5696 5702 5708 5714 5719 5724 5729 5733 5737 5741 5744 5747 5750 5752 5753 5755 5756 5757
5484 5491 5497 5505 5512 5519 5527 5536 5543 5548 5555 5562 5569 5578 5589 5601 5612 5622 5630 5637 5645 5651 5658 5665 5671 5678 5684 5691 5697 5703 5709 5714 5719 5723 5728 5731 5735 5738 5740 5742 5744 5746 5747 5747
5477 5483 5490 5495 5500 5509 5517 5524 5530 5539 5546 5554 5562 5572 5582 5592 5604 5613 5620 5627 5634 5640 5646 5653 5660 5667 5674 5680 5687 5693 5698 5704 5709 5713 5718 5721 5725 5728 5730 5732 5735 5736 5737 5738
5470 5476 5481 5487 5494 5501 5508 5514 5522 5529 5536 5545 5554 5566 5573 5583 5592 5601 5609 5616 5623 5629 5635 5642 5649 5656 5663 5670 5676 5682 5688 5693 5699 5703 5707 5711 5715 5717 5720 5723 5725 5726 5727 5728
5463 5468 5473 5479 5486 5491 5497 5503 5511 5521 5529 5536 5545 5558 5565 5573 5582 5590 5598 5605 5612 5618 5624 5631 5638 5645 5652 5659 5666 5672 5678 5683 5688 5692 5697 5701 5704 5707 5711 5713 5715 5716 5717 5719
5455 5460 5465 5470 5474 5480 5487 5494 5501 5508 5515 5525 5536 5549 5556 5564 5572 5580 5587 5594 5601 5608 5614 5621 5628 5635 5642 5649 5655 5661 5667 5672 5677 5682 5686 5691 5694 5697 5700 5702 5704 5706 5707 5708
5448 5453 5457 5462 5467 5472 5479 5486 5492 5498 5507 5517 5529 5538 5547 5554 5562 5570 5576 5583 5591 5598 5604 5611 5618 5625 5632 5638 5645 5651 5656 5662 5667 5672 5676 5680 5684 5687 5689 5692 5694 5696 5697 5698
5442 5446 5450 5455 5459 5464 5470 5477 5483 5491 5499 5509 5518 5527 5536 5543 5551 5559 5567 5574 5581 5588 5595 5602 5609 5615 5622 5628 5634 5640 5646 5652 5657 5662 5666 5670 5673 5676 5679 5681 5683 5685 5687 5688
5436 5440 5443 5448 5452 5456 5463 5469 5476 5484 5491 5500 5508 5519 5526 5533 5541 5549 5557 5564 5571 5578 5586 5593 5599 5606 5612 5619 5625 5631 5636 5641 5647 5651 5656 5659 5663 5666 5669 5671 5673 5676 5677 5678
5431 5433 5437 5441 5446 5451 5459 5463 5468 5475 5482 5490 5498 5506 5514 5523 5531 5538 5546 5553 5561 5569 5576 5583 5590 5596 5602 5609 5615 5621 5626 5632 5637 5641 5645 5649 5653 5656 5659 5661 5663 5665 5667 5668
5424 5427 5430 5434 5438 5443 5451 5455 5460 5466 5473 5480 5488 5496 5503 5511 5519 5527 5536 5544 5552 5559 5566 5573 5579 5586 5593 5599 5605 5611 5617 5622 5627 5631 5636 5639 5643 5646 5649 5651 5654 5655 5657 5658
5418 5420 5424 5428 5432 5437 5444 5448 5452 5458 5464 5470 5476 5484 5492 5499 5507 5518 5526 5533 5541 5548 5556 5563 5570 5577 5584 5590 5596 5602 5608 5613 5618 5622 5626 5629 5633 5636 5639 5641 5643 5645 5647 5648
5412 5414 5417 5420 5424 5429 5435 5440 5444 5451 5456 5460 5466 5473 5481 5489 5498 5507 5514 5522 5530 5538 5546 5553 5561 5568 5574 5581 5587 5593 5598 5603 5608 5612 5616 5620 5623 5626 5629 5632 5634 5635 5637 5638
5405 5408 5411 5413 5418 5425 5427 5430 5435 5440 5446 5452 5457 5464 5471 5479 5487 5495 5503 5511 5519 5527 5536 5543 5551 5558 5565 5571 5578 5584 5589 5594 5599 5603 5607 5611 5614 5617 5619 5622 5624 5626 5627 5629
5398 5401 5403 5406 5412 5415 5418 5421 5426 5431 5437 5443 5449 5455 5462 5469 5477 5485 5493 5501 5509 5517 5525 5533 5541 5548 5556 5562 5568 5574 5579 5584 5589 5594 5598 5601 5605 5608 5610 5613 5615 5616 5618 5619
5391 5393 5395 5398 5403 5406 5409 5413 5417 5422 5427 5433 5439 5446 5453 5460 5467 5475 5483 5491 5499 5507 5515 5523 5530 5538 5545 5552 5559 5565 5570 5575 5580 5584 5588 5592 5595 5598 5601 5603 5605 5607 5608 5609
5384 5385 5387 5390 5395 5398 5401 5405 5409 5414 5419 5424 5430 5437 5443 5451 5458 5465 5473 5481 5489 5497 5505 5513 5520 5528 5535 5542 5548 5554 5560 5565 5570 5575 5579 5582 5586 5589 5592 5594 5596 5598 5599 5600
5377 5378 5380 5383 5386 5388 5393 5397 5400 5405 5410 5415 5421 5428 5435 5441 5448 5456 5463 5471 5479 5487 5495 5502 5510 5517 5525 5531 5538 5544 5550 5555 5560 5565 5569 5573 5576 5579 5582 5584 5586 5587 5589 5590